Preview of NWS' New Version of Forecast
This preview is not operational and should not be used for support decisions.

Regional Weather Roundup (RWR)

Issued by National Weather Service (NWS)

                            
000
ASUS45 KABQ 251310
RWRNM 
NEW MEXICO REGIONAL WEATHER ROUNDUP
NATIONAL WEATHER SERVICE ALBUQUERQUE NM
700 AM MDT SUN AUG 25 2019

NOTE: "FAIR" MEANS FEW OR NO CLOUDS BELOW 12,000 FEET AGL WITH NO
       SIGNIFICANT WEATHER OR OBSTRUCTIONS TO VISION.

      THIS PRODUCT IS RELEASED AS TWO VERSIONS.  ONE VERSION NEAR
      THE TOP OF THE HOUR CONTAINING PRELIMINARY DATA FROM ALBUQUERQUE
      AND OTHER STATIONS.  A FINAL VERSION WITH ADDITIONAL DATA IS 
      ISSUED ABOUT 10 MINUTES AFTER THE HOUR.
 
NMZ501-503-504-510>518-251400-
NORTHWEST PLATEAU/NORTHCENTRAL MOUNTAINS
  
CITY           SKY/WX    TMP DP  RH WIND       PRES   REMARKS
FARMINGTON     FAIR      57  31  37 E7        30.15R                  
LOS ALAMOS       N/A     64  28  25 SW3       30.26R                  
SANTA FE       FAIR      54  33  45 NE6       30.19R                  
TAOS           FAIR      45  32  60 N6        30.28R                  
ANGEL FIRE     FAIR      32  29  90 CALM      30.36R                  

$$
NMZ402-403-502-505>509-251400-
WESTCENTRAL MOUNTAINS/SOUTHWEST MOUNTAINS
  
CITY           SKY/WX    TMP DP  RH WIND       PRES   REMARKS
GALLUP         FAIR      56  42  59 CALM      30.28R                  
GRANTS         FAIR      47  31  52 NW5       30.28R                  
SILVER CITY    FAIR      67  57  70 NW12      30.17R                  

$$
NMZ407-409-411-412-251400-
SOUTHERN DESERTS
  
CITY           SKY/WX    TMP DP  RH WIND       PRES   REMARKS
DEMING         FAIR      69  61  75 S9        30.11R                  
LAS CRUCES     FAIR      71  60  67 W9        30.10R                  
HOLLOMAN AFB   FAIR      74  60  59 SE7       30.07R                  
ALAMOGORDO     FAIR      73  57  56 S14       30.06R                  
T OR C         FAIR      75  50  41 N6        30.10R                  

$$
NMZ519>523-251400-
CENTRAL VALLEYS/CENTRAL HIGHLANDS
  
CITY           SKY/WX    TMP DP  RH WIND       PRES   REMARKS
ALBUQUERQUE    MOCLDY    65  33  30 SE3       30.14R                  
DOUBLE EAGLE   PTCLDY    57  30  35 S5        30.18R                  
MORIARTY ARPT  FAIR      48  36  62 CALM      30.20R                  
CLINES CORNERS FAIR      58  29  33 W8        30.24R                  
BELEN          FAIR      61  34  36 NE5       30.14R                  
SOCORRO        FAIR      65  42  42 CALM      30.11R                  

$$
NMZ524>526-539-540-251400-
SOUTHCENTRAL MOUNTAINS
  
CITY           SKY/WX    TMP DP  RH WIND       PRES   REMARKS
RUIDOSO        FAIR      66  37  34 W7        30.24R                  

$$
NMZ527>531-251400-
NORTHEAST HIGHLANDS/NORTHEAST PLAINS
  
CITY           SKY/WX    TMP DP  RH WIND       PRES   REMARKS
LAS VEGAS      FAIR      56  36  47 NE7       30.19R                  
RATON          FAIR      51  42  71 NE5       30.12R                  
CLAYTON        FAIR      71  51  49 NW14G21   29.98S                  

$$
NMZ532>537-251400-
EASTCENTRAL PLAINS
  
CITY           SKY/WX    TMP DP  RH WIND       PRES   REMARKS
SANTA ROSA     FAIR      70  40  34 N3        30.02R                  
TUCUMCARI      FAIR      66  53  63 W9        29.93R                  
CANNON AFB     NOT AVBL                                               
CLOVIS AIRPORT FAIR      66  61  84 W7        29.95S                  

$$
NMZ028-029-538-251400-
SOUTHEAST PLAINS
  
CITY           SKY/WX    TMP DP  RH WIND       PRES   REMARKS
ROSWELL        FAIR      74  48  39 W9        29.93R                  
ARTESIA        FAIR      73  54  49 CALM      29.95R                  
CARLSBAD       FAIR      72  57  59 VRB3      29.91S                  
HOBBS          CLEAR     68  61  77 S6        29.95S                  


$$